User: anonymous   Login
Location: Cheching
(60.0667°N, 164.2167°W)
Time: 17:46:04
(UTC+00:00)
Language:

NOAA 15 - Orbit

View from above orbital plane
View from above orbital plane
View from above satellite
View from above satellite

Ground track
Ground track

The orbit data is extracted from the following two-line orbital elements,

1 25338U 98030A   21129.21475036  .00000090  00000-0  56081-4 0  9997
2 25338  98.6852 158.0844 0011056  40.8135 319.3871 14.26027724195401
Epoch (UTC): 09 May 2021 05:09:14
Eccentricity: 0.0011056
inclination: 98.6852°
perigee height: 797 km
apogee height: 813 km
right ascension of ascending node: 158.0844°
argument of perigee: 40.8135°
revolutions per day: 14.26027724
mean anomaly at epoch: 319.3871°
orbit number at epoch: 19540

The dashed part of the orbit path shows where the satellite is in the earth's shadow,  

DLR